Retour au catalogue

SHIYAN 28B-02

ActifScienceLEO
NORAD 65226·PAYLOAD·🇨🇳 China
Ce nom de satellite n'a pas encore été confirmé par des sources officielles.

Lancé Aug 17, 2025 depuis Xichang Satellite Launch Center

Loading…

Prochains Passages (prochaines 24 heures)

TLE

FraisSource: Space-Track

Époque: Sep 14, 2026, 16:58 UTC

1 65226U 25177A   26257.70711507  .00000564  00000-0  51178-4 0  9994
2 65226  10.9995  70.3109 0003549 352.9831   7.0347 14.29420831 56363

Suivez SHIYAN 28B-02 en temps réel avec AllMySat

Download on the App Store